Cavalier, ND

9:31 PM CDT on June 24, 2017 (GMT -0500)
Cavalier

Weather History for K2C8 - December, 2012

Change the Weather History Date:

Wednesday, December 19, 2012

  Actual Average (KGAF) Record (KGAF)
Temperature  
Mean Temperature 12 °F -  
Max Temperature 23 °F 17 °F 39 °F (1953)
Min Temperature 1 °F 1 °F -32 °F (1955)
Degree Days  
Heating Degree Days 53    
Moisture  
Dew Point 14 °F    
Average Humidity 92    
Maximum Humidity 100    
Minimum Humidity 78    
Precipitation  
Precipitation 0.74 in - - ()
Sea Level Pressure  
Sea Level Pressure 29.88 in    
Wind  
Wind Speed 9 mph (NNW)    
Max Wind Speed 20 mph    
Max Gust Speed 26 mph    
Visibility 6 miles    
Events Rain , Snow    
Averages and records for this station are not official NWS values.
T = Trace of Precipitation, MM = Missing Value Source: NWS Daily Summary

Daily Weather History Graph

Daily Weather History Graph

Search for Another Location

Airport or City:

Trip Planner

Search our weather history database for the weather conditions in past years. The results will help you decide how hot, cold, wet, or windy it might be!

Date:

Astronomy

Dec. 19, 2012 Rise Set
Actual Time 8:20 AM CST 4:35 PM CST
Civil Twilight 7:42 AM CST 5:12 PM CST
Nautical Twilight 7:02 AM CST 5:53 PM CST
Astronomical Twilight 6:24 AM CST 6:31 PM CST
Moon 11:56 AM CST (12/19) No Moon Set
Length of Visible Light 9h 30m
Length of Day
8h 15m
Waxing Crescent, 45% of the Moon is Illuminated
Dec 19
Waxing Crescent
Dec 19
First Quarter
Dec 28
Full
Jan 4
Last Quarter
Jan 11
New

Hourly Weather History & Observations

Time (CST) Temp. Windchill Dew Point Humidity Pressure Visibility Wind Dir Wind Speed Gust Speed Precip Events Conditions
12:15 AM 21.2 °F 16.4 °F 21.2 °F 100% 29.71 in 7.0 mi NNE 3.5 mph - N/A   Overcast
12:35 AM 23.0 °F 17.0 °F 21.2 °F 93% 29.71 in 6.0 mi North 4.6 mph - N/A Snow Light Snow
12:55 AM 23.0 °F 17.0 °F 21.2 °F 93% 29.71 in 3.0 mi North 4.6 mph - N/A Snow Light Snow
1:15 AM 23.0 °F 18.4 °F 21.2 °F 93% 29.72 in 5.0 mi NNW 3.5 mph - N/A   Overcast
1:35 AM 23.0 °F 17.0 °F 21.2 °F 93% 29.72 in 6.0 mi NNW 4.6 mph - N/A   Overcast
1:55 AM 23.0 °F 17.0 °F 21.2 °F 93% 29.72 in 5.0 mi North 4.6 mph - N/A   Overcast
2:15 AM 21.2 °F 13.6 °F 21.2 °F 100% 29.72 in 6.0 mi NNW 5.8 mph - N/A   Overcast
2:35 AM 21.2 °F 12.6 °F 19.4 °F 93% 29.73 in 6.0 mi NNW 6.9 mph - N/A   Overcast
2:55 AM 19.4 °F 11.5 °F 19.4 °F 100% 29.74 in 7.0 mi NNW 5.8 mph - N/A   Overcast
3:15 AM 19.4 °F 9.5 °F 19.4 °F 100% 29.73 in 7.0 mi NNW 8.1 mph - N/A   Overcast
3:35 AM 19.4 °F 9.5 °F 19.4 °F 100% 29.73 in 7.0 mi NNW 8.1 mph - N/A   Overcast
3:55 AM 19.4 °F 9.5 °F 19.4 °F 100% 29.73 in 7.0 mi NNW 8.1 mph - N/A Snow Light Snow
4:15 AM 19.4 °F 10.4 °F 19.4 °F 100% 29.73 in 7.0 mi NNW 6.9 mph - N/A   Overcast
4:35 AM 19.4 °F 9.5 °F 19.4 °F 100% 29.73 in 7.0 mi NNW 8.1 mph - N/A   Overcast
4:55 AM 19.4 °F 8.6 °F 19.4 °F 100% 29.73 in 7.0 mi NNW 9.2 mph - N/A Snow Light Snow
5:15 AM 19.4 °F 8.6 °F 19.4 °F 100% 29.73 in 8.0 mi NNW 9.2 mph - N/A   Overcast
5:35 AM 19.4 °F 7.9 °F 19.4 °F 100% 29.74 in 6.0 mi NNW 10.4 mph - N/A   Overcast
5:55 AM 19.4 °F 7.2 °F 19.4 °F 100% 29.74 in 5.0 mi North 11.5 mph - N/A Snow Light Snow
6:15 AM 19.4 °F 7.2 °F 19.4 °F 100% 29.75 in 5.0 mi NNW 11.5 mph - N/A Snow Light Snow
6:35 AM 19.4 °F 6.6 °F 17.6 °F 93% 29.75 in 5.0 mi NNW 12.7 mph - N/A Snow Light Snow
6:55 AM 17.6 °F 3.7 °F 17.6 °F 100% 29.76 in 5.0 mi NNW 13.8 mph - N/A Rain Light Freezing Rain
7:15 AM 17.6 °F 4.3 °F 17.6 °F 100% 29.76 in 3.0 mi NNW 12.7 mph - N/A Snow Light Snow
7:35 AM 17.6 °F 4.3 °F 17.6 °F 100% 29.77 in 1.8 mi NNW 12.7 mph - 0.04 in Snow Light Snow
7:55 AM 17.6 °F 5.0 °F 15.8 °F 93% 29.77 in 0.8 mi NNW 11.5 mph - 0.15 in Snow Light Snow
8:15 AM 17.6 °F 4.3 °F 15.8 °F 93% 29.78 in 1.0 mi NNW 12.7 mph - 0.06 in Snow Light Snow
8:35 AM 17.6 °F 4.3 °F 15.8 °F 93% 29.79 in 1.8 mi NNW 12.7 mph - 0.08 in Snow Light Snow
8:55 AM 15.8 °F 1.4 °F 14.0 °F 93% 29.80 in 3.0 mi NNW 13.8 mph - 0.09 in Snow Light Snow
9:15 AM 15.8 °F 2.7 °F 14.0 °F 93% 29.80 in 2.0 mi NNW 11.5 mph - N/A Snow Light Snow
9:35 AM 15.8 °F 1.4 °F 14.0 °F 93% 29.81 in 1.0 mi NNW 13.8 mph - 0.03 in Snow Light Snow
9:55 AM 15.8 °F 0.9 °F 14.0 °F 93% 29.81 in 0.5 mi NNW 15.0 mph - 0.11 in Snow Snow
10:15 AM 15.8 °F 0.3 °F 14.0 °F 93% 29.83 in 0.2 mi NNW 16.1 mph - 0.15 in Snow Heavy Snow
10:35 AM 15.8 °F 0.3 °F 14.0 °F 93% 29.84 in 0.8 mi NNW 16.1 mph - 0.23 in Snow Light Snow
10:55 AM 15.8 °F -0.2 °F 14.0 °F 93% 29.84 in 1.8 mi NNW 17.3 mph - 0.27 in Snow Light Snow
11:15 AM 15.8 °F 0.3 °F 14.0 °F 93% 29.85 in 1.0 mi NNW 16.1 mph - 0.03 in Snow Light Snow
11:35 AM 15.8 °F -0.2 °F 14.0 °F 93% 29.85 in 1.2 mi NNW 17.3 mph 23.0 mph 0.05 in Snow Light Snow
11:55 AM 15.8 °F -0.2 °F 14.0 °F 93% 29.85 in 1.8 mi NNW 17.3 mph 23.0 mph 0.07 in Snow Light Snow
12:15 PM 15.8 °F -0.6 °F 14.0 °F 93% 29.86 in 1.0 mi NNW 18.4 mph 26.5 mph 0.01 in Snow Light Snow
12:35 PM 15.8 °F 0.3 °F 14.0 °F 93% 29.87 in 1.5 mi NNW 16.1 mph 21.9 mph 0.04 in Snow Light Snow
12:55 PM 15.8 °F 0.9 °F 14.0 °F 93% 29.88 in 2.0 mi NNW 15.0 mph 19.6 mph 0.05 in Snow Light Snow
1:15 PM 15.8 °F -0.6 °F 14.0 °F 93% 29.88 in 6.0 mi NNW 18.4 mph - N/A   Mostly Cloudy
1:35 PM 15.8 °F -1.1 °F 14.0 °F 93% 29.89 in 7.0 mi NNW 19.6 mph 24.2 mph N/A   Mostly Cloudy
1:55 PM 15.8 °F -0.2 °F 14.0 °F 93% 29.89 in 6.0 mi NNW 17.3 mph 25.3 mph N/A   Overcast
2:15 PM 15.8 °F 0.3 °F 14.0 °F 93% 29.90 in 6.0 mi NNW 16.1 mph 25.3 mph N/A   Overcast
2:35 PM 15.8 °F 0.9 °F 14.0 °F 93% 29.91 in 9.0 mi NNW 15.0 mph - N/A   Overcast
2:55 PM 15.8 °F 0.3 °F 14.0 °F 93% 29.93 in 9.0 mi NNW 16.1 mph 21.9 mph N/A   Mostly Cloudy
3:15 PM 15.8 °F 0.9 °F 14.0 °F 93% 29.95 in 8.0 mi NNW 15.0 mph - N/A   Mostly Cloudy
3:35 PM 15.8 °F -0.6 °F 14.0 °F 93% 29.95 in 2.5 mi NNW 18.4 mph - N/A   Mostly Cloudy
3:55 PM 15.8 °F 0.3 °F 12.2 °F 86% 29.96 in 6.0 mi NNW 16.1 mph - N/A   Overcast
4:15 PM 15.8 °F 0.3 °F 12.2 °F 86% 29.97 in 8.0 mi NNW 16.1 mph - N/A   Overcast
4:35 PM 15.8 °F 0.9 °F 10.4 °F 79% 29.98 in 7.0 mi NNW 15.0 mph - N/A Snow Light Snow
4:55 PM 14.0 °F -0.8 °F 10.4 °F 86% 29.99 in 3.0 mi NNW 13.8 mph - N/A Snow Light Snow
5:15 PM 14.0 °F -0.8 °F 10.4 °F 86% 30.00 in 10.0 mi NNW 13.8 mph - N/A   Mostly Cloudy
5:35 PM 14.0 °F -0.2 °F 10.4 °F 86% 30.01 in 9.0 mi NNW 12.7 mph - N/A Snow Light Snow
5:55 PM 14.0 °F 1.2 °F 10.4 °F 86% 30.01 in 8.0 mi NNW 10.4 mph - N/A Snow Light Snow
6:15 PM 14.0 °F 2.0 °F 10.4 °F 86% 30.02 in 9.0 mi NNW 9.2 mph - N/A Snow Light Snow
6:35 PM 14.0 °F 2.0 °F 10.4 °F 86% 30.03 in 10.0 mi NNW 9.2 mph - N/A   Mostly Cloudy
6:55 PM 14.0 °F 0.5 °F 10.4 °F 86% 30.03 in 10.0 mi NNW 11.5 mph - N/A   Overcast
7:15 PM 14.0 °F 2.0 °F 10.4 °F 86% 30.04 in 10.0 mi NNW 9.2 mph - N/A   Overcast
7:35 PM 14.0 °F 5.1 °F 10.4 °F 86% 30.06 in 10.0 mi NNW 5.8 mph - N/A   Overcast
7:55 PM 14.0 °F 6.5 °F 10.4 °F 86% 30.07 in 10.0 mi NNW 4.6 mph - N/A   Overcast
8:15 PM 14.0 °F 8.2 °F 10.4 °F 86% 30.08 in 10.0 mi NNW 3.5 mph - N/A   Overcast
8:35 PM 14.0 °F 5.1 °F 10.4 °F 86% 30.07 in 10.0 mi North 5.8 mph - N/A   Overcast
8:55 PM 14.0 °F 5.1 °F 8.6 °F 79% 30.08 in 10.0 mi NNW 5.8 mph - N/A   Mostly Cloudy
9:15 PM 14.0 °F 8.2 °F 8.6 °F 79% 30.08 in 9.0 mi North 3.5 mph - N/A Snow Light Snow
9:35 PM 12.2 °F 6.1 °F 8.6 °F 85% 30.09 in 10.0 mi North 3.5 mph - N/A   Overcast
9:55 PM 12.2 °F 1.7 °F 8.6 °F 85% 30.09 in 10.0 mi NNW 6.9 mph - N/A   Overcast
10:15 PM 10.4 °F -1.5 °F 6.8 °F 85% 30.08 in 10.0 mi NNW 8.1 mph - N/A   Overcast
10:35 PM 8.6 °F -2.6 °F 6.8 °F 92% 30.08 in 10.0 mi NNW 6.9 mph - N/A   Partly Cloudy
10:55 PM 8.6 °F -1.3 °F 5.0 °F 85% 30.09 in 10.0 mi NNW 5.8 mph - N/A   Clear
11:15 PM 5.0 °F -4.1 °F -0.4 °F 78% 30.10 in 10.0 mi WNW 4.6 mph - N/A   Clear
11:35 PM 1.4 °F - -0.4 °F 92% 30.11 in 10.0 mi Calm Calm - N/A   Clear
11:55 PM 3.2 °F - 1.4 °F 92% 30.11 in 10.0 mi Calm Calm - N/A   Partly Cloudy